Tracking 29892 objects as of 21-Nov-2024
HD Live streaming from Space Station
objects crossing your sky now

STARLINK-2053

Track STARLINK-2053 now!
10-day predictions
STARLINK-2053 is classified as:


NORAD ID: 47663
Int'l Code: 2021-012AV
Perigee: 509.9 km
Apogee: 511.8 km
Inclination: 53.1 °
Period: 94.7 minutes
Semi major axis: 6881 km
RCS: Unknown
Launch date: February 16, 2021
Source: United States (US)
Launch site: AIR FORCE EASTERN TEST RANGE (AFETR)
Your satellite tracking list
Your tracking list is empty




NASA's NSSDC Master Catalog

Two Line Element Set (TLE):
1 47663U 21012AV  24325.91668981  .00779149  00000-0  32393-1 0  9994
2 47663  53.0552 298.3327 0001364  88.8579 118.5730 15.20702324  5748
Source of the keplerian elements: AFSPC